Weather History for Prescott, AZ

Change the Weather History Date:

Sunday, August 19, 2012

  Actual Average Record
Temperature  
Mean Temperature 75 °F 73 °F  
Max Temperature 87 °F 86 °F 97 °F (1960)
Min Temperature 63 °F 60 °F 50 °F (1990)
Degree Days  
Heating Degree Days 0    
Month to date heating degree days  
Since 1 July heating degree days  
Cooling Degree Days 10    
Month to date cooling degree days  
Year to date cooling degree days  
Growing Degree Days 25 (Base 50)    
Moisture  
Dew Point 59 °F    
Average Humidity 60    
Maximum Humidity 87    
Minimum Humidity 36    
Precipitation  
Precipitation 0.00 in 0.08 in 1.68 in (1984)
Month to date precipitation 1.69  
Year to date precipitation 8.73  
Sea Level Pressure  
Sea Level Pressure 29.90 in    
Wind  
Wind Speed 3 mph (WSW)    
Max Wind Speed 13 mph    
Max Gust Speed 24 mph    
Visibility 10 miles    
Events Thunderstorm    
T = Trace of Precipitation, MM = Missing Value Source: NWS Daily Summary

Daily Weather History Graph

Daily Weather History Graph

Search for Another Location

Airport:

Trip Planner

Search our weather history database for the weather conditions in past years. The results will help you decide how hot, cold, wet, or windy it might be!

Date:

Astronomy

Aug. 19, 2012 Rise Set
Actual Time 5:53 AM MST 7:12 PM MST
Civil Twilight 5:27 AM MST 7:38 PM MST
Nautical Twilight 4:55 AM MST 8:09 PM MST
Astronomical Twilight 4:22 AM MST 8:42 PM MST
Moon 8:03 AM MST (8/19) 8:13 PM MST (8/19)
Length of Visible Light 14h 11m
Length of Day
13h 18m
Waxing Crescent, 5% of the Moon is Illuminated
Aug 19
Waxing Crescent
Aug 24
First Quarter
Aug 31
Full
Sep 8
Last Quarter
Sep 15
New

Hourly Weather History & Observations

Time (MST) Temp. Heat Index Dew Point Humidity Pressure Visibility Wind Dir Wind Speed Gust Speed Precip Events Conditions
12:53 AM 64.0 °F - 59.0 °F 84% 29.86 in 10.0 mi Calm Calm - N/A   Clear
1:53 AM 64.9 °F - 59.0 °F 81% 29.86 in 10.0 mi SSW 5.8 mph - N/A   Clear
2:53 AM 64.0 °F - 59.0 °F 84% 29.88 in 10.0 mi Calm Calm - N/A   Clear
3:53 AM 63.0 °F - 59.0 °F 87% 29.91 in 10.0 mi West 3.5 mph - N/A   Partly Cloudy
4:53 AM 63.0 °F - 57.9 °F 84% 29.90 in 10.0 mi Calm Calm - N/A   Clear
5:53 AM 63.0 °F - 57.9 °F 84% 29.91 in 10.0 mi Calm Calm - N/A   Clear
6:53 AM 64.9 °F - 59.0 °F 81% 29.92 in 10.0 mi Calm Calm - N/A   Clear
7:53 AM 68.0 °F - 61.0 °F 78% 29.94 in 10.0 mi NNW 4.6 mph - N/A   Clear
8:53 AM 73.0 °F - 61.0 °F 66% 29.94 in 10.0 mi Variable 3.5 mph - N/A   Clear
9:53 AM 77.0 °F - 61.0 °F 58% 29.93 in 10.0 mi Variable 3.5 mph - N/A   Partly Cloudy
10:53 AM 82.9 °F 83.2 °F 60.1 °F 46% 29.91 in 10.0 mi NE 5.8 mph - N/A   Partly Cloudy
11:53 AM 84.9 °F 84.4 °F 59.0 °F 41% 29.88 in 10.0 mi ENE 3.5 mph - N/A   Scattered Clouds
12:32 PM 86.0 °F 84.9 °F 57.2 °F 37% 30.12 in 10.0 mi Variable 4.6 mph - N/A   Scattered Clouds
12:34 PM 86.0 °F 84.9 °F 57.2 °F 37% 30.12 in 10.0 mi Variable 3.5 mph - N/A   Scattered Clouds
12:53 PM 87.1 °F 85.9 °F 57.0 °F 36% 29.86 in 10.0 mi Variable 3.5 mph - N/A   Scattered Clouds
1:53 PM 82.0 °F 81.6 °F 55.9 °F 41% 29.85 in 10.0 mi SSW 12.7 mph 24.2 mph N/A   Scattered Clouds
2:53 PM 82.9 °F 83.2 °F 60.1 °F 46% 29.83 in 10.0 mi SW 9.2 mph - N/A   Scattered Clouds
3:53 PM 84.9 °F 84.4 °F 59.0 °F 41% 29.82 in 10.0 mi WSW 4.6 mph - N/A   Mostly Cloudy
4:28 PM 82.4 °F 82.9 °F 60.8 °F 48% 30.07 in 10.0 mi SW 10.4 mph - N/A Thunderstorm Thunderstorm
4:53 PM 82.9 °F 83.2 °F 60.1 °F 46% 29.83 in 10.0 mi SW 9.2 mph - N/A Thunderstorm Thunderstorm
5:53 PM 82.9 °F 82.6 °F 57.9 °F 42% 29.83 in 10.0 mi WSW 5.8 mph - N/A   Scattered Clouds
6:53 PM 78.1 °F - 59.0 °F 52% 29.84 in 10.0 mi NNE 6.9 mph - N/A   Partly Cloudy
7:53 PM 75.2 °F - 60.8 °F 61% 29.86 in 10.0 mi West 5.8 mph - N/A   Partly Cloudy
8:53 PM 75.0 °F - 60.1 °F 60% 29.87 in 10.0 mi West 3.5 mph - N/A   Clear
9:53 PM 73.0 °F - 57.9 °F 59% 29.88 in 10.0 mi Calm Calm - N/A   Clear
10:53 PM 71.1 °F - 57.9 °F 63% 29.87 in 10.0 mi WSW 5.8 mph - N/A   Clear
11:53 PM 70.0 °F - 57.9 °F 65% 29.88 in 10.0 mi Calm Calm - N/A   Clear